SCP
0 0 -0 -0 0 0 0 0 0 0 0 0 0 0 0 0 0 0 1 1 1 1 1 1 1 0 0 0 0 0 0 0
-0 -0 -0 -0 -0 0 0 0 0 0 0 0 0 0 0 1 1 1 1 1 1 1 1 1 0 0 0 0 0 0 0 0
-0 -0 -0 -0 -0 0 0 0 0 0 1 1 1 1 1 1 1 1 1 1 1 1 1 1 0 0 0 0 0 0 0 0
0 -0 -0 -0 -0 0 0 0 0 0 2 1 2 2 2 2 1 1 1 1 1 1 1 0 0 0 0 0 0 0 0 0
0 -0 -0 -0 0 0 0 0 0 0 2 2 2 2 2 1 1 1 1 1 0 0 0 0 0 0 0 0 0 0 0 0
-0 0 0 -0 -0 -0 0 0 0 0 2 1 1 1 2 1 1 1 0 0 0 0 0 0 0 0 0 0 0 0 0 0
-0 0 0 0 0 0 0 0 0 0 1 1 1 1 1 1 0 0 0 0 0 0 0 0 0 0 0 0 0 0 0 0
0 -0 0 0 0 0 0 0 0 0 0 1 1 1 1 0 0 0 0 0 0 0 0 0 0 0 0 0 0 0 0 0
-0 -0 0 0 0 0 0 0 0 0 1 1 1 0 0 0 0 0 0 0 0 0 0 0 0 0 0 0 0 0 0 0
-0 -0 -0 -0 -0 0 0 0 0 0 1 1 0 0 0 0 0 0 0 0 0 0 0 0 0 0 0 0 0 0 0 0
-0 -0 -0 -0 -0 -0 0 0 0 0 1 0 0 0 0 0 0 0 0 0 0 0 0 0 0 0 0 0 0 0 0 0
-0 -0 -0 -0 0 0 0 0 0 0 0 0 0 0 0 0 0 0 0 0 0 0 0 0 0 0 0 0 0 0 0 0
-0 -0 -0 -0 -0 0 0 0 0 0 0 0 0 0 0 0 0 0 0 0 0 0 0 0 0 0 0 0 0 0 0 0
-0 -0 -0 -0 0 0 0 0 0 0 0 0 0 0 0 0 0 0 0 0 0 0 0 0 0 0 -0 -0 0 -0 -0 -0
-0 0 0 -0 0 0 0 -0 -0 0 0 0 0 0 0 0 0 0 0 0 0 0 0 0 0 -0 -0 -0 -0 -0 -0 0
0 0 0 0 0 -0 -0 0 0 0 0 0 0 0 0 0 0 0 0 0 0 0 0 0 0 -0 -0 -0 -0 -0 0 0
0 0 0 0 0 0 0 0 0 0 0 0 0 0 0 0 0 0 0 0 0 0 0 0 0 0 0 0 0 0 0 0
0 0 0 0 0 0 0 0 0 0 0 0 0 0 0 0 0 0 0 0 0 0 0 0 0 0 0 0 0 0 0 0
0 0 0 0 0 0 0 0 0 0 0 0 0 0 0 0 0 0 0 0 0 0 0 0 0 0 0 0 0 0 0 0
0 0 0 0 0 0 0 0 0 0 0 0 0 0 0 0 0 0 0 0 0 0 0 0 0 0 0 0 0 0 0 0
Wind_Speed_500mb
41 47 58 65 66 56 48 64 58 41 45 59 63 73 72 74 72 68 62 58 52 53 51 51 49 43 40 40 36 35 31 27
58 54 54 66 64 73 56 62 62 38 43 56 57 67 68 71 71 65 60 54 54 54 51 50 46 38 41 39 36 31 27 25
44 54 62 67 66 77 70 59 63 42 36 45 43 55 62 59 57 57 52 51 50 49 50 50 46 47 38 36 31 29 28 25
46 64 74 70 68 79 77 59 62 41 26 28 40 45 48 50 52 49 47 48 51 52 51 52 54 47 36 32 29 29 27 25
52 66 76 71 63 68 78 64 60 36 26 23 37 43 46 46 46 46 48 51 53 54 56 56 52 40 35 32 30 25 24 26
71 75 85 71 69 68 71 55 55 26 26 34 44 46 42 43 46 56 55 57 59 60 57 49 43 39 34 31 24 23 25 27
83 81 80 72 65 53 50 49 45 22 30 46 50 46 44 47 58 60 63 65 66 57 52 43 39 36 33 24 23 23 22 19
73 81 78 68 56 44 51 46 39 30 34 50 51 49 50 56 64 69 61 67 58 57 47 41 37 31 26 23 22 21 19 17
73 70 67 62 50 47 49 45 40 31 35 55 54 54 60 64 66 67 69 67 58 50 47 41 32 25 22 24 21 18 14 14
69 71 66 54 43 45 48 51 32 8 55 57 56 58 63 73 68 73 69 60 56 52 43 36 28 25 23 19 17 15 14 15
74 67 60 50 38 39 39 34 30 13 53 54 64 62 70 72 75 73 67 59 51 44 37 32 30 29 23 19 20 17 17 18
71 66 58 47 29 22 35 32 34 24 44 55 66 75 72 68 67 64 61 52 42 37 33 30 31 29 25 25 24 20 18 23
65 61 55 49 29 29 22 34 36 40 60 85 80 76 76 72 67 61 46 35 29 25 24 22 28 29 26 23 19 23 24 25
59 52 46 42 39 35 42 39 42 45 72 82 82 78 70 65 60 54 38 31 26 21 23 16 23 17 25 21 16 22 28 31
44 32 30 40 42 70 76 78 76 64 74 80 75 73 63 58 53 47 47 41 35 29 26 17 15 26 25 18 22 26 29 33
17 16 22 41 64 60 72 72 70 71 65 64 64 65 61 54 46 44 45 47 45 37 31 20 22 21 22 28 31 27 32 27
22 1 15 32 43 55 57 60 62 59 57 57 55 60 52 44 41 45 48 48 47 42 41 32 27 28 25 33 31 27 23 28
13 16 18 40 45 44 40 48 57 55 54 52 48 45 42 38 40 43 43 46 46 55 43 34 32 30 36 36 31 22 27 22
14 19 23 46 40 38 40 50 49 53 49 45 39 39 38 38 38 39 41 48 51 49 41 30 30 38 39 34 30 24 25 24
15 17 31 39 41 39 46 50 49 46 44 42 41 41 39 39 41 42 41 55 50 49 44 46 45 47 40 34 28 27 26 26
Wind_Direction_500mb
327 322 325 323 327 319 324 332 324 288 257 249 233 221 221 226 233 240 246 238 224 215 217 213 214 217 200 198 210 196 202 212
313 313 314 324 309 322 310 324 330 295 257 236 221 220 222 226 232 237 225 212 209 209 207 208 211 198 194 201 188 194 203 210
301 307 312 314 312 312 310 310 326 308 254 227 212 215 215 214 214 206 203 203 204 202 204 200 191 186 190 187 197 203 199 206
307 317 315 310 316 302 306 303 320 308 248 230 215 197 199 194 193 197 197 196 201 199 194 184 180 181 180 185 189 196 210 224
310 308 309 302 291 297 303 305 319 297 235 220 206 186 182 188 196 194 191 191 190 186 177 178 174 180 181 187 198 210 227 237
307 300 303 296 293 293 300 313 311 282 219 200 188 185 187 194 194 182 183 185 176 172 169 173 179 179 187 192 202 221 236 240
296 293 296 296 290 296 306 303 302 273 223 204 203 201 199 196 191 186 180 170 166 162 166 170 181 181 186 196 217 227 226 227
289 296 299 295 286 288 289 288 295 259 230 212 205 207 207 191 186 178 170 162 162 165 168 175 176 185 193 207 215 213 221 222
295 296 294 292 291 292 287 285 281 266 216 214 204 204 196 181 178 164 161 162 162 168 171 171 177 186 197 199 202 210 219 203
296 294 294 294 297 294 282 275 265 215 192 195 197 195 177 168 167 156 158 164 166 168 172 173 176 183 189 184 184 187 183 177
301 301 303 301 295 279 273 261 225 198 169 180 169 166 154 150 152 156 161 165 167 168 173 176 177 177 177 172 164 159 161 166
298 297 295 290 300 281 265 223 203 170 165 170 160 154 152 156 156 160 164 164 169 175 177 180 177 177 181 179 176 173 175 181
302 295 290 283 291 280 175 173 183 168 173 170 155 156 156 159 162 161 163 168 176 178 178 185 186 186 179 171 179 185 179 183
300 294 291 274 269 211 226 164 145 149 156 154 156 157 161 159 162 158 161 163 153 136 125 126 152 164 159 166 167 167 172 178
298 301 263 259 165 145 144 140 167 173 162 159 158 160 159 157 159 162 162 159 154 143 141 125 139 155 162 163 153 144 155 165
298 283 352 94 139 151 153 157 164 163 159 160 160 161 161 161 161 165 166 163 158 156 150 139 144 158 149 150 148 145 158 164
122 48 74 121 137 146 164 167 166 157 158 159 160 163 163 164 165 167 171 170 166 160 151 147 146 137 135 143 148 153 152 162
122 88 97 123 138 147 160 162 160 155 153 152 150 155 162 167 170 174 178 173 168 157 153 152 148 144 141 146 148 150 146 149
98 103 118 139 142 146 150 150 151 151 146 144 150 157 165 173 176 177 177 174 160 153 139 141 137 137 133 136 150 149 145 140
106 101 125 137 142 142 149 149 143 140 141 151 157 159 160 162 162 164 166 166 152 143 141 137 132 129 125 127 143 149 155 158
Wind_Speed_850mb
41 47 58 65 66 56 48 64 58 41 45 59 63 73 72 74 72 68 62 58 52 53 51 51 49 43 40 40 36 35 31 27
58 54 54 66 64 73 56 62 62 38 43 56 57 67 68 71 71 65 60 54 54 54 51 50 46 38 41 39 36 31 27 25
44 54 62 67 66 77 70 59 63 42 36 45 43 55 62 59 57 57 52 51 50 49 50 50 46 47 38 36 31 29 28 25
46 64 74 70 68 79 77 59 62 41 26 28 40 45 48 50 52 49 47 48 51 52 51 52 54 47 36 32 29 29 27 25
52 66 76 71 63 68 78 64 60 36 26 23 37 43 46 46 46 46 48 51 53 54 56 56 52 40 35 32 30 25 24 26
71 75 85 71 69 68 71 55 55 26 26 34 44 46 42 43 46 56 55 57 59 60 57 49 43 39 34 31 24 23 25 27
83 81 80 72 65 53 50 49 45 22 30 46 50 46 44 47 58 60 63 65 66 57 52 43 39 36 33 24 23 23 22 19
73 81 78 68 56 44 51 46 39 30 34 50 51 49 50 56 64 69 61 67 58 57 47 41 37 31 26 23 22 21 19 17
73 70 67 62 50 47 49 45 40 31 35 55 54 54 60 64 66 67 69 67 58 50 47 41 32 25 22 24 21 18 14 14
69 71 66 54 43 45 48 51 32 8 55 57 56 58 63 73 68 73 69 60 56 52 43 36 28 25 23 19 17 15 14 15
74 67 60 50 38 39 39 34 30 13 53 54 64 62 70 72 75 73 67 59 51 44 37 32 30 29 23 19 20 17 17 18
71 66 58 47 29 22 35 32 34 24 44 55 66 75 72 68 67 64 61 52 42 37 33 30 31 29 25 25 24 20 18 23
65 61 55 49 29 29 22 34 36 40 60 85 80 76 76 72 67 61 46 35 29 25 24 22 28 29 26 23 19 23 24 25
59 52 46 42 39 35 42 39 42 45 72 82 82 78 70 65 60 54 38 31 26 21 23 16 23 17 25 21 16 22 28 31
44 32 30 40 42 70 76 78 76 64 74 80 75 73 63 58 53 47 47 41 35 29 26 17 15 26 25 18 22 26 29 33
17 16 22 41 64 60 72 72 70 71 65 64 64 65 61 54 46 44 45 47 45 37 31 20 22 21 22 28 31 27 32 27
22 1 15 32 43 55 57 60 62 59 57 57 55 60 52 44 41 45 48 48 47 42 41 32 27 28 25 33 31 27 23 28
13 16 18 40 45 44 40 48 57 55 54 52 48 45 42 38 40 43 43 46 46 55 43 34 32 30 36 36 31 22 27 22
14 19 23 46 40 38 40 50 49 53 49 45 39 39 38 38 38 39 41 48 51 49 41 30 30 38 39 34 30 24 25 24
15 17 31 39 41 39 46 50 49 46 44 42 41 41 39 39 41 42 41 55 50 49 44 46 45 47 40 34 28 27 26 26
Wind_Direction_850mb
327 322 325 323 327 319 324 332 324 288 257 249 233 221 221 226 233 240 246 238 224 215 217 213 214 217 200 198 210 196 202 212
313 313 314 324 309 322 310 324 330 295 257 236 221 220 222 226 232 237 225 212 209 209 207 208 211 198 194 201 188 194 203 210
301 307 312 314 312 312 310 310 326 308 254 227 212 215 215 214 214 206 203 203 204 202 204 200 191 186 190 187 197 203 199 206
307 317 315 310 316 302 306 303 320 308 248 230 215 197 199 194 193 197 197 196 201 199 194 184 180 181 180 185 189 196 210 224
310 308 309 302 291 297 303 305 319 297 235 220 206 186 182 188 196 194 191 191 190 186 177 178 174 180 181 187 198 210 227 237
307 300 303 296 293 293 300 313 311 282 219 200 188 185 187 194 194 182 183 185 176 172 169 173 179 179 187 192 202 221 236 240
296 293 296 296 290 296 306 303 302 273 223 204 203 201 199 196 191 186 180 170 166 162 166 170 181 181 186 196 217 227 226 227
289 296 299 295 286 288 289 288 295 259 230 212 205 207 207 191 186 178 170 162 162 165 168 175 176 185 193 207 215 213 221 222
295 296 294 292 291 292 287 285 281 266 216 214 204 204 196 181 178 164 161 162 162 168 171 171 177 186 197 199 202 210 219 203
296 294 294 294 297 294 282 275 265 215 192 195 197 195 177 168 167 156 158 164 166 168 172 173 176 183 189 184 184 187 183 177
301 301 303 301 295 279 273 261 225 198 169 180 169 166 154 150 152 156 161 165 167 168 173 176 177 177 177 172 164 159 161 166
298 297 295 290 300 281 265 223 203 170 165 170 160 154 152 156 156 160 164 164 169 175 177 180 177 177 181 179 176 173 175 181
302 295 290 283 291 280 175 173 183 168 173 170 155 156 156 159 162 161 163 168 176 178 178 185 186 186 179 171 179 185 179 183
300 294 291 274 269 211 226 164 145 149 156 154 156 157 161 159 162 158 161 163 153 136 125 126 152 164 159 166 167 167 172 178
298 301 263 259 165 145 144 140 167 173 162 159 158 160 159 157 159 162 162 159 154 143 141 125 139 155 162 163 153 144 155 165
298 283 352 94 139 151 153 157 164 163 159 160 160 161 161 161 161 165 166 163 158 156 150 139 144 158 149 150 148 145 158 164
122 48 74 121 137 146 164 167 166 157 158 159 160 163 163 164 165 167 171 170 166 160 151 147 146 137 135 143 148 153 152 162
122 88 97 123 138 147 160 162 160 155 153 152 150 155 162 167 170 174 178 173 168 157 153 152 148 144 141 146 148 150 146 149
98 103 118 139 142 146 150 150 151 151 146 144 150 157 165 173 176 177 177 174 160 153 139 141 137 137 133 136 150 149 145 140
106 101 125 137 142 142 149 149 143 140 141 151 157 159 160 162 162 164 166 166 152 143 141 137 132 129 125 127 143 149 155 158